Weather History for KCMY - December, 2013

Change the Weather History Date:

Sunday, December 15, 2013

  Actual Average Record
Temperature  
Mean Temperature 4 °F -  
Max Temperature 11 °F 30 °F 47 °F (2014)
Min Temperature -4 °F 11 °F -25 °F (1961)
Degree Days  
Heating Degree Days 62    
Moisture  
Dew Point -5 °F    
Average Humidity 65    
Maximum Humidity 80    
Minimum Humidity 44    
Precipitation  
Precipitation 0.00 in - - ()
Sea Level Pressure  
Sea Level Pressure 30.06 in    
Wind  
Wind Speed 8 mph (WNW)    
Max Wind Speed 13 mph    
Max Gust Speed 21 mph    
Visibility 10 miles    
Events Snow    
Averages and records for this station are not official NWS values.
T = Trace of Precipitation, MM = Missing Value Source: NWS Daily Summary

Daily Weather History Graph

Daily Weather History Graph

Search for Another Location

Airport or City:

Trip Planner

Search our weather history database for the weather conditions in past years. The results will help you decide how hot, cold, wet, or windy it might be!

Date:

Astronomy

Dec. 15, 2013 Rise Set
Actual Time 7:30 AM CST 4:25 PM CST
Civil Twilight 6:57 AM CST 4:58 PM CST
Nautical Twilight 6:21 AM CST 5:35 PM CST
Astronomical Twilight 5:46 AM CST 6:10 PM CST
Moon 3:32 PM CST (12/15) 5:44 AM CST (12/15)
Length of Visible Light 10h 01m
Length of Day
8h 54m
Waxing Gibbous, 98% of the Moon is Illuminated
Dec 15
Waxing Gibbous
Dec 17
Full
Dec 25
Last Quarter
Jan 1
New
Jan 7
First Quarter

Hourly Weather History & Observations

Time (CST) Temp. Windchill Dew Point Humidity Pressure Visibility Wind Dir Wind Speed Gust Speed Precip Events Conditions
12:15 AM 11.3 °F -1.3 °F 5.5 °F 78% 29.99 in 10.0 mi West 9.2 mph - N/A   Overcast
12:35 AM 11.3 °F 0.7 °F 5.5 °F 78% 29.99 in 10.0 mi West 6.9 mph - N/A Snow Light Snow
12:55 AM 11.1 °F -1.6 °F 5.0 °F 76% 29.99 in 10.0 mi West 9.2 mph 16.1 mph N/A   Overcast
1:15 AM 10.8 °F -2.0 °F 4.6 °F 76% 29.99 in 10.0 mi West 9.2 mph - N/A   Overcast
1:35 AM 10.8 °F -2.8 °F 4.8 °F 77% 30.00 in 7.0 mi WNW 10.4 mph - N/A Snow Light Snow
1:55 AM 9.3 °F -4.6 °F 2.7 °F 74% 30.00 in 10.0 mi WNW 10.4 mph - N/A   Mostly Cloudy
2:15 AM 7.9 °F -8.0 °F 0.5 °F 72% 30.01 in 10.0 mi NW 12.7 mph 20.7 mph N/A   Scattered Clouds
2:35 AM 7.2 °F -5.4 °F 0.1 °F 73% 30.01 in 10.0 mi NW 8.1 mph - N/A   Mostly Cloudy
2:55 AM 7.7 °F -6.6 °F 0.9 °F 74% 30.02 in 10.0 mi WNW 10.4 mph 16.1 mph N/A   Overcast
3:15 AM 7.7 °F -4.8 °F 0.9 °F 74% 30.01 in 10.0 mi WNW 8.1 mph - N/A   Overcast
3:35 AM 7.7 °F -3.7 °F 0.9 °F 74% 30.01 in 10.0 mi NW 6.9 mph - N/A   Overcast
3:55 AM 7.7 °F -5.8 °F 1.4 °F 75% 30.01 in 10.0 mi NW 9.2 mph - N/A   Overcast
4:15 AM 7.7 °F -6.6 °F 1.6 °F 76% 30.01 in 10.0 mi NW 10.4 mph - N/A   Overcast
4:35 AM 7.3 °F -8.6 °F 0.9 °F 75% 30.02 in 10.0 mi WNW 12.7 mph - N/A   Overcast
4:55 AM 6.6 °F -8.8 °F 0.1 °F 75% 30.02 in 10.0 mi WNW 11.5 mph 16.1 mph N/A   Overcast
5:15 AM 6.3 °F -7.5 °F -0.4 °F 74% 30.03 in 10.0 mi NW 9.2 mph - N/A   Overcast
5:35 AM 6.1 °F -6.8 °F -0.4 °F 75% 30.02 in 10.0 mi West 8.1 mph - N/A   Overcast
5:55 AM 5.5 °F -8.4 °F -1.5 °F 73% 30.03 in 10.0 mi WNW 9.2 mph - N/A   Overcast
6:15 AM 5.4 °F -5.2 °F -1.3 °F 74% 30.03 in 10.0 mi West 5.8 mph - N/A   Overcast
6:35 AM 5.2 °F -5.4 °F -1.5 °F 74% 30.02 in 10.0 mi West 5.8 mph - N/A   Overcast
6:55 AM 5.0 °F -8.1 °F -2.2 °F 72% 30.03 in 10.0 mi WNW 8.1 mph - N/A   Overcast
7:15 AM 5.0 °F -8.1 °F -2.4 °F 72% 30.03 in 10.0 mi West 8.1 mph - N/A   Overcast
7:35 AM 4.8 °F -8.3 °F -2.6 °F 72% 30.04 in 10.0 mi WNW 8.1 mph - N/A   Overcast
7:55 AM 4.8 °F -5.8 °F -2.4 °F 72% 30.05 in 10.0 mi NW 5.8 mph - N/A   Overcast
8:15 AM 5.0 °F -2.1 °F -2.4 °F 72% 30.05 in 10.0 mi WNW 3.5 mph - N/A   Overcast
8:35 AM 5.0 °F -6.9 °F -2.2 °F 72% 30.06 in 10.0 mi WNW 6.9 mph - N/A   Overcast
8:55 AM 5.0 °F -9.1 °F -2.7 °F 70% 30.06 in 10.0 mi NW 9.2 mph - N/A   Overcast
9:15 AM 5.4 °F -5.2 °F -2.7 °F 69% 30.07 in 10.0 mi NW 5.8 mph - N/A   Overcast
9:35 AM 5.4 °F -7.6 °F -2.7 °F 69% 30.07 in 10.0 mi West 8.1 mph - N/A   Overcast
9:55 AM 6.3 °F -9.2 °F -2.7 °F 67% 30.07 in 10.0 mi WNW 11.5 mph - N/A   Mostly Cloudy
10:15 AM 6.3 °F -5.4 °F -3.6 °F 64% 30.07 in 10.0 mi WNW 6.9 mph - N/A   Clear
10:35 AM 6.4 °F -9.0 °F -3.6 °F 63% 30.07 in 10.0 mi NW 11.5 mph - N/A   Clear
10:55 AM 7.3 °F -6.2 °F -3.8 °F 60% 30.07 in 10.0 mi NW 9.2 mph - N/A   Clear
11:15 AM 7.5 °F -6.0 °F -4.2 °F 59% 30.07 in 10.0 mi WNW 9.2 mph 17.3 mph N/A   Clear
11:35 AM 7.7 °F -5.8 °F -5.1 °F 56% 30.07 in 10.0 mi NW 9.2 mph 17.3 mph N/A   Clear
11:55 AM 8.2 °F -4.1 °F -4.9 °F 55% 30.06 in 10.0 mi West 8.1 mph 16.1 mph N/A   Clear
12:15 PM 8.4 °F -7.3 °F -5.4 °F 53% 30.06 in 10.0 mi WNW 12.7 mph 17.3 mph N/A   Clear
12:35 PM 8.6 °F -5.5 °F -5.6 °F 53% 30.05 in 10.0 mi WNW 10.4 mph - N/A   Clear
12:55 PM 8.2 °F -6.8 °F -5.6 °F 53% 30.06 in 10.0 mi NW 11.5 mph - N/A   Clear
1:15 PM 8.8 °F -6.8 °F -5.6 °F 52% 30.06 in 10.0 mi NW 12.7 mph 16.1 mph N/A   Clear
1:35 PM 8.6 °F -4.7 °F -6.2 °F 51% 30.06 in 10.0 mi West 9.2 mph - N/A   Clear
1:55 PM 8.6 °F -4.7 °F -6.3 °F 51% 30.06 in 10.0 mi NW 9.2 mph - N/A   Clear
2:15 PM 8.4 °F -6.5 °F -8.5 °F 46% 30.06 in 10.0 mi WNW 11.5 mph - N/A   Clear
2:35 PM 8.4 °F -4.9 °F -7.8 °F 48% 30.06 in 10.0 mi WNW 9.2 mph - N/A   Clear
2:55 PM 8.6 °F -5.5 °F -7.6 °F 48% 30.06 in 10.0 mi WNW 10.4 mph - N/A   Clear
3:15 PM 7.9 °F -7.2 °F -9.9 °F 44% 30.06 in 10.0 mi WNW 11.5 mph - N/A   Clear
3:35 PM 7.7 °F -3.7 °F -8.5 °F 48% 30.06 in 10.0 mi West 6.9 mph - N/A   Clear
3:55 PM 7.2 °F -6.4 °F -8.3 °F 49% 30.07 in 10.0 mi WNW 9.2 mph - N/A   Clear
4:15 PM 5.9 °F -8.9 °F -9.2 °F 50% 30.07 in 10.0 mi NW 10.4 mph - N/A   Clear
4:35 PM 4.8 °F -2.3 °F -9.2 °F 52% 30.07 in 10.0 mi NW 3.5 mph - N/A   Clear
4:55 PM 3.9 °F - -9.6 °F 54% 30.08 in 10.0 mi Calm Calm - N/A   Clear
5:15 PM 2.5 °F -5.0 °F -9.4 °F 58% 30.08 in 10.0 mi NW 3.5 mph - N/A   Clear
5:35 PM 3.0 °F - -10.1 °F 54% 30.08 in 10.0 mi Calm Calm - N/A   Clear
5:55 PM 0.1 °F - -10.1 °F 62% 30.09 in 10.0 mi Calm Calm - N/A   Clear
6:15 PM -0.9 °F - -8.7 °F 70% 30.10 in 10.0 mi Calm Calm - N/A   Clear
6:35 PM -2.9 °F - -9.2 °F 74% 30.11 in 10.0 mi Calm Calm - N/A   Clear
6:55 PM -4.2 °F - -8.9 °F 80% 30.11 in 10.0 mi Calm Calm - N/A   Clear
7:15 PM -4.0 °F - -10.3 °F 74% 30.12 in 10.0 mi Calm Calm - N/A   Clear
7:35 PM -4.2 °F - -9.4 °F 78% 30.12 in 10.0 mi Calm Calm - N/A   Clear
7:55 PM -1.3 °F -13.1 °F -8.7 °F 71% 30.12 in 10.0 mi NNW 5.8 mph - N/A   Clear
8:15 PM -0.2 °F - -9.8 °F 64% 30.13 in 10.0 mi Calm Calm - N/A   Clear
8:35 PM 0.1 °F - -10.5 °F 61% 30.13 in 10.0 mi Calm Calm - N/A   Clear
8:55 PM 0.3 °F - -10.3 °F 61% 30.13 in 10.0 mi Calm Calm - N/A   Clear
9:15 PM 0.3 °F - -9.6 °F 63% 30.14 in 10.0 mi Calm Calm - N/A   Scattered Clouds
9:35 PM 0.5 °F -7.3 °F -9.4 °F 63% 30.13 in 10.0 mi North 3.5 mph - N/A   Scattered Clouds
9:55 PM 0.7 °F -9.1 °F -9.6 °F 62% 30.14 in 10.0 mi NW 4.6 mph - N/A   Mostly Cloudy
10:15 PM 0.3 °F -7.5 °F -10.1 °F 61% 30.14 in 10.0 mi NNW 3.5 mph - N/A   Scattered Clouds
10:35 PM -0.0 °F - -10.5 °F 61% 30.14 in 10.0 mi Calm Calm - N/A   Clear
10:55 PM -0.8 °F - -10.1 °F 65% 30.13 in 10.0 mi Calm Calm - N/A   Clear
11:15 PM -1.7 °F -9.7 °F -9.9 °F 68% 30.14 in 10.0 mi NNE 3.5 mph - N/A   Clear
11:35 PM -2.4 °F - -10.5 °F 68% 30.14 in 10.0 mi Calm Calm - N/A   Clear
11:55 PM -3.1 °F - -10.3 °F 71% 30.15 in 10.0 mi Calm Calm - N/A   Clear